Time,TemperatureF,DewpointF,PressureIn,WindDirection,WindDirectionDegrees,WindSpeedMPH,WindSpeedGustMPH,Humidity,HourlyPrecipIn,Conditions,Clouds,dailyrainin,SoftwareType,DateUTC
2013-05-13 00:02:00,50.2,26.2,29.03,WSW,249,0.0,0.0,39,0.00,,CLR,0.00,VWS V14.01,2013-05-13 05:02:00,
2013-05-13 00:07:00,50.0,26.0,29.03,WSW,250,0.0,0.0,39,0.00,,CLR,0.00,VWS V14.01,2013-05-13 05:07:00,
2013-05-13 00:12:00,50.0,26.0,29.03,WSW,250,0.0,0.0,39,0.00,,CLR,0.00,VWS V14.01,2013-05-13 05:12:00,
2013-05-13 00:17:00,49.8,26.5,29.03,WSW,250,0.0,0.0,40,0.00,,CLR,0.00,VWS V14.01,2013-05-13 05:17:00,
2013-05-13 00:22:00,49.6,26.3,29.03,WSW,250,0.0,0.0,40,0.00,,CLR,0.00,VWS V14.01,2013-05-13 05:22:00,
2013-05-13 00:27:00,50.0,26.0,29.03,WSW,249,0.0,0.0,39,0.00,,CLR,0.00,VWS V14.01,2013-05-13 05:27:00,
2013-05-13 00:32:00,50.2,26.2,29.03,WSW,250,0.0,0.0,39,0.00,,CLR,0.00,VWS V14.01,2013-05-13 05:32:00,
2013-05-13 00:37:00,50.4,26.4,29.03,WSW,249,0.0,0.0,39,0.00,,CLR,0.00,VWS V14.01,2013-05-13 05:37:00,
2013-05-13 00:43:00,50.0,26.0,29.03,SSW,201,0.0,0.0,39,0.00,,CLR,0.00,VWS V14.01,2013-05-13 05:43:00,
2013-05-13 00:48:00,49.5,26.2,29.06,SSW,201,0.0,0.0,40,0.00,,CLR,0.00,VWS V14.01,2013-05-13 05:48:00,
2013-05-13 00:53:00,48.9,26.9,29.06,SSW,202,0.0,0.0,42,0.00,,CLR,0.00,VWS V14.01,2013-05-13 05:53:00,
2013-05-13 00:58:00,48.6,27.1,29.06,SW,216,0.0,0.0,43,0.00,,CLR,0.00,VWS V14.01,2013-05-13 05:58:00,
2013-05-13 01:03:00,48.4,26.9,29.06,SW,216,0.0,0.0,43,0.00,,CLR,0.00,VWS V14.01,2013-05-13 06:03:00,
2013-05-13 01:08:00,48.4,26.9,29.06,SW,216,0.0,0.0,43,0.00,,CLR,0.00,VWS V14.01,2013-05-13 06:08:00,
2013-05-13 01:13:00,48.4,26.9,29.06,SW,216,0.0,0.0,43,0.00,,CLR,0.00,VWS V14.01,2013-05-13 06:13:00,
2013-05-13 01:18:00,48.6,27.1,29.06,SW,216,0.0,0.0,43,0.00,,CLR,0.00,VWS V14.01,2013-05-13 06:18:00,
2013-05-13 01:23:00,48.6,27.1,29.06,SW,216,0.0,0.0,43,0.00,,CLR,0.00,VWS V14.01,2013-05-13 06:23:00,
2013-05-13 01:28:00,48.2,27.3,29.06,SSW,207,0.0,0.0,44,0.00,,CLR,0.00,VWS V14.01,2013-05-13 06:28:00,
2013-05-13 01:33:00,48.0,27.7,29.03,SSW,207,0.0,0.0,45,0.00,,CLR,0.00,VWS V14.01,2013-05-13 06:33:00,
2013-05-13 01:38:00,48.0,28.2,29.03,SSW,207,0.0,0.0,46,0.00,,CLR,0.00,VWS V14.01,2013-05-13 06:38:00,
2013-05-13 01:43:00,47.7,28.4,29.03,SSW,207,0.0,0.0,47,0.00,,CLR,0.00,VWS V14.01,2013-05-13 06:43:00,
2013-05-13 01:48:00,47.5,28.3,29.03,SSW,213,0.0,0.0,47,0.00,,CLR,0.00,VWS V14.01,2013-05-13 06:48:00,
2013-05-13 01:53:00,47.3,28.1,29.03,SSW,210,0.0,0.0,47,0.00,,CLR,0.00,VWS V14.01,2013-05-13 06:53:00,
2013-05-13 01:59:00,47.1,28.5,29.03,SW,214,0.0,0.0,48,0.00,,CLR,0.00,VWS V14.01,2013-05-13 06:59:00,
2013-05-13 02:04:00,47.1,28.5,29.03,SSW,212,0.0,0.0,48,0.00,,CLR,0.00,VWS V14.01,2013-05-13 07:04:00,
2013-05-13 02:09:00,47.1,28.5,29.03,SSW,210,0.0,0.0,48,0.00,,CLR,0.00,VWS V14.01,2013-05-13 07:09:00,
2013-05-13 02:14:00,46.8,28.1,29.03,SSW,210,0.0,0.0,48,0.00,,CLR,0.00,VWS V14.01,2013-05-13 07:14:00,
2013-05-13 02:19:00,46.9,28.8,29.03,SSW,210,0.0,0.0,49,0.00,,CLR,0.00,VWS V14.01,2013-05-13 07:19:00,
2013-05-13 02:24:00,47.1,28.5,29.03,SSW,210,0.0,0.0,48,0.00,,CLR,0.00,VWS V14.01,2013-05-13 07:24:00,
2013-05-13 02:29:00,47.1,28.5,29.03,SSW,210,0.0,0.0,48,0.00,,CLR,0.00,VWS V14.01,2013-05-13 07:29:00,
2013-05-13 02:34:00,47.1,28.5,29.03,SSW,210,0.0,0.0,48,0.00,,CLR,0.00,VWS V14.01,2013-05-13 07:34:00,
2013-05-13 02:39:00,46.9,28.3,29.03,SSW,210,0.0,0.0,48,0.00,,CLR,0.00,VWS V14.01,2013-05-13 07:39:00,
2013-05-13 02:44:00,46.9,28.3,29.03,SSW,210,0.0,0.0,48,0.00,,CLR,0.00,VWS V14.01,2013-05-13 07:44:00,
2013-05-13 02:49:00,46.8,28.1,29.03,SSW,210,0.0,0.0,48,0.00,,CLR,0.00,VWS V14.01,2013-05-13 07:49:00,
2013-05-13 02:54:00,46.8,28.6,29.03,SSW,210,0.0,0.0,49,0.00,,CLR,0.00,VWS V14.01,2013-05-13 07:54:00,
2013-05-13 02:59:00,46.8,28.6,29.03,SSW,210,0.0,0.0,49,0.00,,CLR,0.00,VWS V14.01,2013-05-13 07:59:00,
2013-05-13 03:04:00,46.8,28.6,29.03,SSW,210,0.0,0.0,49,0.00,,CLR,0.00,VWS V14.01,2013-05-13 08:04:00,
2013-05-13 03:09:00,46.6,28.5,29.03,SSW,210,0.0,0.0,49,0.00,,CLR,0.00,VWS V14.01,2013-05-13 08:09:00,
2013-05-13 03:15:00,46.6,28.5,29.03,SSW,210,0.0,0.0,49,0.00,,CLR,0.00,VWS V14.01,2013-05-13 08:15:00,
2013-05-13 03:20:00,46.6,28.0,29.03,SSW,210,0.0,0.0,48,0.00,,CLR,0.00,VWS V14.01,2013-05-13 08:20:00,
2013-05-13 03:25:00,46.6,28.0,29.03,SSW,210,0.0,0.0,48,0.00,,CLR,0.00,VWS V14.01,2013-05-13 08:25:00,
2013-05-13 03:30:00,46.6,28.0,29.03,SSW,210,0.0,0.0,48,0.00,,CLR,0.00,VWS V14.01,2013-05-13 08:30:00,
2013-05-13 03:35:00,46.6,28.0,29.03,SSW,210,0.0,0.0,48,0.00,,CLR,0.00,VWS V14.01,2013-05-13 08:35:00,
2013-05-13 03:40:00,46.4,28.3,29.03,SSW,210,0.0,0.0,49,0.00,,CLR,0.00,VWS V14.01,2013-05-13 08:40:00,
2013-05-13 03:45:00,46.4,27.8,29.03,SSW,210,0.0,0.0,48,0.00,,CLR,0.00,VWS V14.01,2013-05-13 08:45:00,
2013-05-13 03:50:00,46.2,28.1,29.03,SSW,210,0.0,0.0,49,0.00,,CLR,0.00,VWS V14.01,2013-05-13 08:50:00,
2013-05-13 03:55:00,46.0,28.0,29.03,SSW,210,0.0,0.0,49,0.00,,CLR,0.00,VWS V14.01,2013-05-13 08:55:00,
2013-05-13 04:00:00,45.7,28.1,29.03,SSW,210,0.0,0.0,50,0.00,,CLR,0.00,VWS V14.01,2013-05-13 09:00:00,
2013-05-13 04:05:00,45.9,28.3,29.03,SSW,210,0.0,0.0,50,0.00,,CLR,0.00,VWS V14.01,2013-05-13 09:05:00,
2013-05-13 04:10:00,46.0,28.0,29.03,SSW,210,0.0,0.0,49,0.00,,CLR,0.00,VWS V14.01,2013-05-13 09:10:00,
2013-05-13 04:15:00,46.0,28.0,29.03,SSW,210,0.0,0.0,49,0.00,,CLR,0.00,VWS V14.01,2013-05-13 09:15:00,
2013-05-13 04:20:00,46.0,28.0,29.03,SSW,210,0.0,0.0,49,0.00,,CLR,0.00,VWS V14.01,2013-05-13 09:20:00,
2013-05-13 04:25:00,45.9,28.3,29.03,SSW,210,0.0,0.0,50,0.00,,CLR,0.00,VWS V14.01,2013-05-13 09:25:00,
2013-05-13 04:30:00,45.9,28.3,29.03,SSW,210,0.0,0.0,50,0.00,,CLR,0.00,VWS V14.01,2013-05-13 09:30:00,
2013-05-13 04:36:00,45.7,28.1,29.03,SSW,210,0.0,0.0,50,0.00,,CLR,0.00,VWS V14.01,2013-05-13 09:36:00,
2013-05-13 04:41:00,45.5,28.0,29.03,SSW,210,0.0,0.0,50,0.00,,CLR,0.00,VWS V14.01,2013-05-13 09:41:00,
2013-05-13 04:46:00,45.3,28.3,29.03,SSW,210,0.0,0.0,51,0.00,,CLR,0.00,VWS V14.01,2013-05-13 09:46:00,
2013-05-13 04:51:00,45.3,28.3,29.03,SSW,210,0.0,0.0,51,0.00,,CLR,0.00,VWS V14.01,2013-05-13 09:51:00,
2013-05-13 04:56:00,45.3,28.3,29.03,SSW,210,0.0,0.0,51,0.00,,CLR,0.00,VWS V14.01,2013-05-13 09:56:00,
2013-05-13 05:01:00,45.3,28.3,29.03,SSW,210,0.0,0.0,51,0.00,,CLR,0.00,VWS V14.01,2013-05-13 10:01:00,
2013-05-13 05:06:00,45.3,28.3,29.03,SSW,210,0.0,0.0,51,0.00,,CLR,0.00,VWS V14.01,2013-05-13 10:06:00,
2013-05-13 05:11:00,45.3,28.3,29.03,SSW,210,0.0,0.0,51,0.00,,CLR,0.00,VWS V14.01,2013-05-13 10:11:00,
2013-05-13 05:16:00,45.3,28.3,29.03,SSW,210,0.0,0.0,51,0.00,,CLR,0.00,VWS V14.01,2013-05-13 10:16:00,
2013-05-13 05:21:00,45.1,28.1,29.03,SSW,210,0.0,0.0,51,0.00,,CLR,0.00,VWS V14.01,2013-05-13 10:21:00,
2013-05-13 05:26:00,45.0,27.9,29.03,SSW,210,0.0,0.0,51,0.00,,CLR,0.00,VWS V14.01,2013-05-13 10:26:00,
2013-05-13 05:31:00,45.0,27.9,29.03,SSW,210,0.0,0.0,51,0.00,,CLR,0.00,VWS V14.01,2013-05-13 10:31:00,
2013-05-13 05:36:00,45.1,28.1,29.03,SSW,210,0.0,0.0,51,0.00,,CLR,0.00,VWS V14.01,2013-05-13 10:36:00,
2013-05-13 05:41:00,45.1,28.1,29.03,SSW,210,0.0,0.0,51,0.00,,CLR,0.00,VWS V14.01,2013-05-13 10:41:00,
2013-05-13 05:46:00,45.1,27.6,29.03,SSW,210,0.0,0.0,50,0.00,,CLR,0.00,VWS V14.01,2013-05-13 10:46:00,
2013-05-13 05:51:00,45.3,27.8,29.03,SSW,210,0.0,0.0,50,0.00,,CLR,0.00,VWS V14.01,2013-05-13 10:51:00,
2013-05-13 05:56:00,45.1,28.1,29.03,SSW,213,0.0,0.0,51,0.00,,CLR,0.00,VWS V14.01,2013-05-13 10:56:00,
2013-05-13 06:01:00,45.1,28.1,29.03,SSW,213,0.0,0.0,51,0.00,,FEW220,0.00,VWS V14.01,2013-05-13 11:01:00,
2013-05-13 06:06:00,45.1,28.1,29.03,SSW,212,0.0,0.0,51,0.00,,FEW220,0.00,VWS V14.01,2013-05-13 11:06:00,
2013-05-13 06:11:00,45.3,27.8,29.03,SSW,212,0.0,0.0,50,0.00,,FEW220,0.00,VWS V14.01,2013-05-13 11:11:00,
2013-05-13 06:16:00,45.7,28.1,29.03,SSW,212,0.0,0.0,50,0.00,,FEW220,0.00,VWS V14.01,2013-05-13 11:16:00,
2013-05-13 06:21:00,46.0,28.5,29.03,SE,146,0.0,0.0,50,0.00,,FEW220,0.00,VWS V14.01,2013-05-13 11:21:00,
2013-05-13 06:26:00,46.2,28.6,29.03,SSE,158,0.0,0.0,50,0.00,,FEW220,0.00,VWS V14.01,2013-05-13 11:26:00,
2013-05-13 06:31:00,46.6,29.4,29.03,SSE,158,0.0,0.0,51,0.00,,FEW220,0.00,VWS V14.01,2013-05-13 11:31:00,
2013-05-13 06:37:00,46.8,31.5,29.03,SSE,158,0.0,0.0,55,0.00,,FEW220,0.00,VWS V14.01,2013-05-13 11:37:00,
2013-05-13 06:42:00,46.8,32.3,29.03,SSE,158,0.0,0.0,57,0.00,,FEW220,0.00,VWS V14.01,2013-05-13 11:42:00,
2013-05-13 06:47:00,47.1,32.7,29.03,SSE,158,0.0,0.0,57,0.00,,FEW220,0.00,VWS V14.01,2013-05-13 11:47:00,
2013-05-13 06:52:00,47.7,33.6,29.03,SSE,158,0.0,0.0,58,0.00,,FEW220,0.00,VWS V14.01,2013-05-13 11:52:00,
2013-05-13 06:57:00,48.2,32.8,29.03,SSE,158,0.0,0.0,55,0.00,,FEW220,0.00,VWS V14.01,2013-05-13 11:57:00,
2013-05-13 07:02:00,48.6,32.2,29.03,SSE,158,0.0,0.0,53,0.00,,FEW220,0.00,VWS V14.01,2013-05-13 12:02:00,
2013-05-13 07:07:00,49.1,32.2,29.03,SSE,158,0.0,0.0,52,0.00,,FEW220,0.00,VWS V14.01,2013-05-13 12:07:00,
2013-05-13 07:12:00,49.6,32.8,29.03,SSE,158,0.0,0.0,52,0.00,,FEW220,0.00,VWS V14.01,2013-05-13 12:12:00,
2013-05-13 07:17:00,50.0,32.6,29.03,SSE,158,0.0,0.0,51,0.00,,FEW220,0.00,VWS V14.01,2013-05-13 12:17:00,
2013-05-13 07:22:00,50.2,32.8,29.03,SSE,158,0.0,0.0,51,0.00,,FEW220,0.00,VWS V14.01,2013-05-13 12:22:00,
2013-05-13 07:27:00,50.5,32.6,29.03,SSE,166,0.0,0.0,50,0.00,,FEW220,0.00,VWS V14.01,2013-05-13 12:27:00,
2013-05-13 07:32:00,50.7,33.3,29.06,SSE,166,0.0,0.0,51,0.00,,FEW220,0.00,VWS V14.01,2013-05-13 12:32:00,
2013-05-13 07:37:00,51.1,34.1,29.06,South,183,0.0,0.0,52,0.00,,FEW220,0.00,VWS V14.01,2013-05-13 12:37:00,
2013-05-13 07:42:00,51.4,34.4,29.06,SSE,166,0.0,0.0,52,0.00,,FEW220,0.00,VWS V14.01,2013-05-13 12:42:00,
2013-05-13 07:47:00,51.6,34.6,29.06,South,187,0.0,0.0,52,0.00,,FEW220,0.00,VWS V14.01,2013-05-13 12:47:00,
2013-05-13 07:52:00,52.2,35.1,29.06,SSE,168,0.0,0.0,52,0.00,,FEW220,0.00,VWS V14.01,2013-05-13 12:52:00,
2013-05-13 07:58:00,52.7,35.1,29.06,SE,142,0.0,0.0,51,0.00,,FEW220,0.00,VWS V14.01,2013-05-13 12:58:00,
2013-05-13 08:03:00,53.1,35.4,29.03,SSE,157,0.0,0.0,51,0.00,,FEW200,0.00,VWS V14.01,2013-05-13 13:03:00,
2013-05-13 08:08:00,53.4,34.8,29.03,SSE,147,0.0,0.0,49,0.00,,FEW200,0.00,VWS V14.01,2013-05-13 13:08:00,
2013-05-13 08:13:00,54.0,34.7,29.03,SE,133,0.0,0.0,48,0.00,,FEW200,0.00,VWS V14.01,2013-05-13 13:13:00,
2013-05-13 08:18:00,54.1,34.9,29.03,SE,138,0.0,0.0,48,0.00,,FEW200,0.00,VWS V14.01,2013-05-13 13:18:00,
2013-05-13 08:23:00,54.1,34.4,29.03,SSE,164,0.0,0.0,47,0.00,,FEW200,0.00,VWS V14.01,2013-05-13 13:23:00,
2013-05-13 08:28:00,54.5,35.2,29.03,South,172,0.0,0.0,48,0.00,,FEW200,0.00,VWS V14.01,2013-05-13 13:28:00,
2013-05-13 08:33:00,55.0,35.7,29.06,SE,133,0.0,0.0,48,0.00,,FEW200,0.00,VWS V14.01,2013-05-13 13:33:00,
2013-05-13 08:38:00,55.4,35.5,29.06,SE,141,0.0,0.0,47,0.00,,FEW200,0.00,VWS V14.01,2013-05-13 13:38:00,
2013-05-13 08:43:00,55.9,36.0,29.06,ESE,115,0.0,0.0,47,0.00,,FEW200,0.00,VWS V14.01,2013-05-13 13:43:00,
2013-05-13 08:48:00,56.1,36.2,29.06,South,171,0.0,0.0,47,0.00,,FEW200,0.00,VWS V14.01,2013-05-13 13:48:00,
2013-05-13 08:53:00,56.5,36.5,29.06,SE,141,0.0,0.0,47,0.00,,FEW200,0.00,VWS V14.01,2013-05-13 13:53:00,
2013-05-13 08:58:00,56.8,36.8,29.06,SSE,164,0.0,0.0,47,0.00,,FEW200,0.00,VWS V14.01,2013-05-13 13:58:00,
2013-05-13 09:03:00,57.2,37.2,29.03,SE,140,0.0,3.1,47,0.00,,FEW200,0.00,VWS V14.01,2013-05-13 14:03:00,
2013-05-13 09:08:00,57.6,37.5,29.03,South,181,0.0,0.0,47,0.00,,FEW200,0.00,VWS V14.01,2013-05-13 14:08:00,
2013-05-13 09:13:00,58.1,38.5,29.03,South,176,0.0,0.0,48,0.00,,FEW200,0.00,VWS V14.01,2013-05-13 14:13:00,
2013-05-13 09:18:00,58.5,38.3,29.03,ESE,107,0.0,0.0,47,0.00,,FEW200,0.00,VWS V14.01,2013-05-13 14:18:00,
2013-05-13 09:23:00,58.6,38.5,29.03,South,173,0.0,0.0,47,0.00,,FEW200,0.00,VWS V14.01,2013-05-13 14:23:00,
2013-05-13 09:28:00,59.2,38.4,29.03,South,182,0.0,0.0,46,0.00,,FEW200,0.00,VWS V14.01,2013-05-13 14:28:00,
2013-05-13 09:33:00,59.4,38.6,29.03,SSE,168,0.0,0.0,46,0.00,,FEW200,0.00,VWS V14.01,2013-05-13 14:33:00,
2013-05-13 09:38:00,59.7,38.9,29.03,SSE,162,0.0,0.0,46,0.00,,FEW200,0.00,VWS V14.01,2013-05-13 14:38:00,
2013-05-13 09:43:00,60.1,39.8,29.03,South,187,0.0,0.0,47,0.00,,FEW200,0.00,VWS V14.01,2013-05-13 14:43:00,
2013-05-13 09:48:00,60.3,39.4,29.03,SE,142,2.2,3.6,46,0.00,,FEW200,0.00,VWS V14.01,2013-05-13 14:48:00,
2013-05-13 09:53:00,60.3,39.4,29.03,SSE,154,0.0,0.0,46,0.00,,FEW200,0.00,VWS V14.01,2013-05-13 14:53:00,
2013-05-13 09:58:00,60.6,40.3,29.03,SSE,159,0.0,0.0,47,0.00,,FEW200,0.00,VWS V14.01,2013-05-13 14:58:00,
2013-05-13 10:03:00,61.0,40.1,29.03,SSE,151,0.0,0.0,46,0.00,,FEW200,0.00,VWS V14.01,2013-05-13 15:03:00,
2013-05-13 10:08:00,61.3,40.4,29.03,SSE,152,0.0,0.0,46,0.00,,FEW200,0.00,VWS V14.01,2013-05-13 15:08:00,
2013-05-13 10:13:00,61.7,41.3,29.03,South,181,0.0,0.0,47,0.00,,FEW200,0.00,VWS V14.01,2013-05-13 15:13:00,
2013-05-13 10:18:00,61.9,41.5,29.03,SE,124,0.0,3.6,47,0.00,,FEW200,0.00,VWS V14.01,2013-05-13 15:18:00,
2013-05-13 10:23:00,62.2,42.3,29.03,SSE,151,2.7,5.4,48,0.00,,FEW200,0.00,VWS V14.01,2013-05-13 15:23:00,
2013-05-13 10:29:00,62.2,42.3,29.03,South,171,4.9,4.9,48,0.00,,FEW200,0.00,VWS V14.01,2013-05-13 15:29:00,
2013-05-13 10:34:00,62.6,42.1,29.03,South,191,2.7,2.7,47,0.00,,FEW200,0.00,VWS V14.01,2013-05-13 15:34:00,
2013-05-13 10:39:00,63.0,42.4,29.03,South,169,2.7,3.1,47,0.00,,FEW200,0.00,VWS V14.01,2013-05-13 15:39:00,
2013-05-13 10:44:00,63.1,42.0,29.03,South,185,0.0,0.0,46,0.00,,FEW200,0.00,VWS V14.01,2013-05-13 15:44:00,
2013-05-13 10:49:00,63.3,42.2,29.03,SE,139,0.0,0.0,46,0.00,,FEW200,0.00,VWS V14.01,2013-05-13 15:49:00,
2013-05-13 10:54:00,63.5,42.4,29.03,South,184,0.0,0.0,46,0.00,,FEW200,0.00,VWS V14.01,2013-05-13 15:54:00,
2013-05-13 10:59:00,63.9,42.7,29.03,SSE,167,0.0,7.2,46,0.00,,FEW200,0.00,VWS V14.01,2013-05-13 15:59:00,
2013-05-13 11:04:00,64.0,42.9,29.00,South,183,3.1,3.6,46,0.00,,FEW200,0.00,VWS V14.01,2013-05-13 16:04:00,
2013-05-13 11:09:00,64.4,43.2,29.00,South,179,0.0,0.0,46,0.00,,FEW200,0.00,VWS V14.01,2013-05-13 16:09:00,
2013-05-13 11:14:00,64.9,43.7,29.00,South,176,2.7,2.7,46,0.00,,FEW200,0.00,VWS V14.01,2013-05-13 16:14:00,
2013-05-13 11:19:00,65.1,43.3,29.00,SE,145,0.0,2.2,45,0.00,,FEW200,0.00,VWS V14.01,2013-05-13 16:19:00,
2013-05-13 11:24:00,65.3,43.4,29.00,SE,139,0.0,0.0,45,0.00,,FEW200,0.00,VWS V14.01,2013-05-13 16:24:00,
2013-05-13 11:29:00,65.7,43.8,29.00,South,169,0.0,0.0,45,0.00,,FEW200,0.00,VWS V14.01,2013-05-13 16:29:00,
2013-05-13 11:34:00,65.8,43.9,29.00,SSW,205,0.0,3.1,45,0.00,,FEW200,0.00,VWS V14.01,2013-05-13 16:34:00,
2013-05-13 11:39:00,66.0,43.5,29.00,ESE,114,0.0,3.6,44,0.00,,FEW200,0.00,VWS V14.01,2013-05-13 16:39:00,
2013-05-13 11:44:00,66.2,43.7,29.00,SE,135,2.7,4.0,44,0.00,,FEW200,0.00,VWS V14.01,2013-05-13 16:44:00,
2013-05-13 11:50:00,66.2,43.7,29.00,South,183,0.0,5.4,44,0.00,,FEW200,0.00,VWS V14.01,2013-05-13 16:50:00,
2013-05-13 11:55:00,66.4,45.0,29.00,SSE,160,4.0,5.8,46,0.00,,FEW200,0.00,VWS V14.01,2013-05-13 16:55:00,
2013-05-13 12:00:00,66.6,44.6,29.00,South,174,6.3,7.6,45,0.00,,FEW200,0.00,VWS V14.01,2013-05-13 17:00:00,
2013-05-13 12:05:00,66.7,44.8,29.00,East,100,0.0,2.7,45,0.00,,SCT200,0.00,VWS V14.01,2013-05-13 17:05:00,
2013-05-13 12:10:00,66.9,45.5,29.00,South,171,8.1,8.1,46,0.00,,SCT200,0.00,VWS V14.01,2013-05-13 17:10:00,
2013-05-13 12:15:00,66.9,45.5,29.00,ESE,112,0.0,0.0,46,0.00,,SCT200,0.00,VWS V14.01,2013-05-13 17:15:00,
2013-05-13 12:20:00,67.1,45.1,28.97,SSE,166,3.6,3.6,45,0.00,,SCT200,0.00,VWS V14.01,2013-05-13 17:20:00,
2013-05-13 12:25:00,67.5,46.0,28.97,ESE,120,3.6,7.6,46,0.00,,SCT200,0.00,VWS V14.01,2013-05-13 17:25:00,
2013-05-13 12:30:00,67.5,46.0,28.97,ESE,117,2.7,2.7,46,0.00,,SCT200,0.00,VWS V14.01,2013-05-13 17:30:00,
2013-05-13 12:35:00,67.5,45.4,28.97,South,179,4.0,5.4,45,0.00,,SCT200,0.00,VWS V14.01,2013-05-13 17:35:00,
2013-05-13 12:40:00,67.6,45.6,28.97,SSE,167,8.3,8.3,45,0.00,,SCT200,0.00,VWS V14.01,2013-05-13 17:40:00,
2013-05-13 12:45:00,68.0,45.9,28.97,South,177,2.2,4.5,45,0.00,,SCT200,0.00,VWS V14.01,2013-05-13 17:45:00,
2013-05-13 12:50:00,68.0,45.9,28.97,SSE,163,4.0,8.1,45,0.00,,SCT200,0.00,VWS V14.01,2013-05-13 17:50:00,
2013-05-13 12:55:00,68.2,45.5,28.97,SSE,152,5.8,5.8,44,0.00,,SCT200,0.00,VWS V14.01,2013-05-13 17:55:00,
2013-05-13 13:00:00,68.4,45.6,28.97,ESE,118,0.0,0.0,44,0.00,,SCT200,0.00,VWS V14.01,2013-05-13 18:00:00,
2013-05-13 13:05:00,68.4,46.2,28.97,SE,129,0.0,0.0,45,0.00,,SCT200,0.00,VWS V14.01,2013-05-13 18:05:00,
2013-05-13 13:11:00,68.7,46.5,28.97,ENE,64,3.6,3.6,45,0.00,,SCT200,0.00,VWS V14.01,2013-05-13 18:11:00,
2013-05-13 13:16:00,68.7,47.1,28.94,South,177,2.2,2.2,46,0.00,,SCT200,0.00,VWS V14.01,2013-05-13 18:16:00,
2013-05-13 13:21:00,69.1,46.3,28.94,SSE,147,3.1,3.1,44,0.00,,SCT200,0.00,VWS V14.01,2013-05-13 18:21:00,
2013-05-13 13:26:00,69.3,46.4,28.94,SSE,149,5.8,5.8,44,0.00,,SCT200,0.00,VWS V14.01,2013-05-13 18:26:00,
2013-05-13 13:31:00,69.4,46.6,28.94,SE,140,4.9,6.7,44,0.00,,SCT200,0.00,VWS V14.01,2013-05-13 18:31:00,
2013-05-13 13:36:00,69.6,46.2,28.94,SE,134,2.7,5.8,43,0.00,,SCT200,0.00,VWS V14.01,2013-05-13 18:36:00,
2013-05-13 13:41:00,70.0,47.1,28.94,SSW,210,2.7,6.3,44,0.00,,SCT200,0.00,VWS V14.01,2013-05-13 18:41:00,
2013-05-13 13:46:00,70.2,46.6,28.94,South,184,5.8,5.8,43,0.00,,SCT200,0.00,VWS V14.01,2013-05-13 18:46:00,
2013-05-13 13:51:00,70.2,46.0,28.94,SE,144,0.0,0.0,42,0.00,,SCT200,0.00,VWS V14.01,2013-05-13 18:51:00,
2013-05-13 13:56:00,70.3,46.2,28.94,South,185,2.2,3.1,42,0.00,,SCT200,0.00,VWS V14.01,2013-05-13 18:56:00,
2013-05-13 14:01:00,70.5,45.7,28.91,South,178,4.0,4.9,41,0.00,,BKN260,0.00,VWS V14.01,2013-05-13 19:01:00,
2013-05-13 14:06:00,70.7,45.9,28.91,SSE,155,4.9,4.9,41,0.00,,BKN260,0.00,VWS V14.01,2013-05-13 19:06:00,
2013-05-13 14:12:00,70.3,44.2,28.91,SSW,193,6.3,6.3,39,0.00,,BKN260,0.00,VWS V14.01,2013-05-13 19:12:00,
2013-05-13 14:17:00,70.3,45.5,28.91,South,170,2.2,3.1,41,0.00,,BKN260,0.00,VWS V14.01,2013-05-13 19:17:00,
2013-05-13 14:22:00,70.7,45.2,28.91,SSE,150,0.0,0.0,40,0.00,,BKN260,0.00,VWS V14.01,2013-05-13 19:22:00,
2013-05-13 14:27:00,71.1,44.9,28.91,SSE,166,0.0,2.2,39,0.00,,BKN260,0.00,VWS V14.01,2013-05-13 19:27:00,
2013-05-13 14:32:00,71.2,45.7,28.91,SSE,156,0.0,0.0,40,0.00,,BKN260,0.00,VWS V14.01,2013-05-13 19:32:00,
2013-05-13 14:37:00,71.2,45.0,28.91,SSE,152,2.7,4.9,39,0.00,,BKN260,0.00,VWS V14.01,2013-05-13 19:37:00,
2013-05-13 14:42:00,71.4,44.5,28.91,South,191,3.6,3.6,38,0.00,,BKN260,0.00,VWS V14.01,2013-05-13 19:42:00,
2013-05-13 14:47:00,71.4,45.2,28.91,SE,126,0.0,2.2,39,0.00,,BKN260,0.00,VWS V14.01,2013-05-13 19:47:00,
2013-05-13 14:52:00,71.4,45.9,28.91,SE,124,0.0,5.4,40,0.00,,BKN260,0.00,VWS V14.01,2013-05-13 19:52:00,
2013-05-13 14:57:00,71.6,46.7,28.91,SE,135,2.7,2.7,41,0.00,,BKN260,0.00,VWS V14.01,2013-05-13 19:57:00,
2013-05-13 15:02:00,72.0,46.3,28.91,SSE,166,0.0,0.0,40,0.00,,BKN260,0.00,VWS V14.01,2013-05-13 20:02:00,
2013-05-13 15:08:00,72.0,45.0,28.91,South,174,4.9,4.9,38,0.00,,BKN260,0.00,VWS V14.01,2013-05-13 20:08:00,
2013-05-13 15:12:00,72.0,45.0,28.91,SSE,154,0.0,5.4,38,0.00,,BKN260,0.00,VWS V14.01,2013-05-13 20:12:00,
2013-05-13 15:18:00,72.0,44.3,28.88,SSE,158,8.3,8.3,37,0.00,,BKN260,0.00,VWS V14.01,2013-05-13 20:18:00,
2013-05-13 15:23:00,72.1,43.7,28.88,SE,141,0.0,4.0,36,0.00,,BKN260,0.00,VWS V14.01,2013-05-13 20:23:00,
2013-05-13 15:28:00,72.5,45.5,28.88,SE,139,6.3,8.1,38,0.00,,BKN260,0.00,VWS V14.01,2013-05-13 20:28:00,
2013-05-13 15:33:00,72.3,43.9,28.88,SE,135,0.0,3.6,36,0.00,,BKN260,0.00,VWS V14.01,2013-05-13 20:33:00,
2013-05-13 15:38:00,72.3,43.9,28.88,South,184,6.3,6.3,36,0.00,,BKN260,0.00,VWS V14.01,2013-05-13 20:38:00,
2013-05-13 15:43:00,72.5,44.1,28.88,South,183,0.0,4.0,36,0.00,,BKN260,0.00,VWS V14.01,2013-05-13 20:43:00,
2013-05-13 15:48:00,72.7,44.9,28.88,SE,128,5.4,5.4,37,0.00,,BKN260,0.00,VWS V14.01,2013-05-13 20:48:00,
2013-05-13 15:53:00,72.7,44.2,28.88,South,191,0.0,0.0,36,0.00,,BKN260,0.00,VWS V14.01,2013-05-13 20:53:00,
2013-05-13 15:58:00,72.9,44.4,28.88,SSW,200,3.6,6.3,36,0.00,,BKN260,0.00,VWS V14.01,2013-05-13 20:58:00,
2013-05-13 16:03:00,72.9,43.6,28.88,SSW,192,2.7,2.7,35,0.00,,BKN300,0.00,VWS V14.01,2013-05-13 21:03:00,
2013-05-13 16:08:00,73.0,44.5,28.88,SSE,167,3.1,3.6,36,0.00,,BKN300,0.00,VWS V14.01,2013-05-13 21:08:00,
2013-05-13 16:13:00,73.0,43.8,28.88,SSE,163,5.4,5.8,35,0.00,,BKN300,0.00,VWS V14.01,2013-05-13 21:13:00,
2013-05-13 16:18:00,73.2,44.0,28.85,South,175,0.0,8.1,35,0.00,,BKN300,0.00,VWS V14.01,2013-05-13 21:18:00,
2013-05-13 16:23:00,73.2,44.0,28.85,South,173,8.3,8.3,35,0.00,,BKN300,0.00,VWS V14.01,2013-05-13 21:23:00,
2013-05-13 16:28:00,73.2,44.0,28.85,South,175,2.2,6.3,35,0.00,,BKN300,0.00,VWS V14.01,2013-05-13 21:28:00,
2013-05-13 16:34:00,73.0,44.5,28.85,South,174,5.4,8.3,36,0.00,,BKN300,0.00,VWS V14.01,2013-05-13 21:34:00,
2013-05-13 16:39:00,73.2,44.7,28.85,SSE,154,2.7,4.0,36,0.00,,BKN300,0.00,VWS V14.01,2013-05-13 21:39:00,
2013-05-13 16:44:00,73.0,43.8,28.85,SSE,161,4.5,4.5,35,0.00,,BKN300,0.00,VWS V14.01,2013-05-13 21:44:00,
2013-05-13 16:49:00,73.0,44.5,28.85,SSE,159,3.1,4.9,36,0.00,,BKN300,0.00,VWS V14.01,2013-05-13 21:49:00,
2013-05-13 16:54:00,73.0,44.5,28.85,South,171,3.1,3.6,36,0.00,,BKN300,0.00,VWS V14.01,2013-05-13 21:54:00,
2013-05-13 16:59:00,73.0,45.2,28.85,South,183,7.6,7.6,37,0.00,,BKN300,0.00,VWS V14.01,2013-05-13 21:59:00,
2013-05-13 17:04:00,73.2,44.7,28.82,SSE,162,6.3,6.3,36,0.00,,BKN300,0.00,VWS V14.01,2013-05-13 22:04:00,
2013-05-13 17:09:00,73.2,44.7,28.82,SSW,196,5.8,7.6,36,0.00,,BKN300,0.00,VWS V14.01,2013-05-13 22:09:00,
2013-05-13 17:14:00,73.2,44.7,28.82,SSE,167,5.8,5.8,36,0.00,,BKN300,0.00,VWS V14.01,2013-05-13 22:14:00,
2013-05-13 17:19:00,73.2,45.4,28.82,SE,141,7.6,7.6,37,0.00,,BKN300,0.00,VWS V14.01,2013-05-13 22:19:00,
2013-05-13 17:24:00,73.2,45.4,28.82,South,180,4.9,4.9,37,0.00,,BKN300,0.00,VWS V14.01,2013-05-13 22:24:00,
2013-05-13 17:29:00,73.2,45.4,28.82,ESE,115,3.6,5.4,37,0.00,,BKN300,0.00,VWS V14.01,2013-05-13 22:29:00,
2013-05-13 17:34:00,73.2,44.7,28.82,South,180,2.7,3.6,36,0.00,,BKN300,0.00,VWS V14.01,2013-05-13 22:34:00,
2013-05-13 17:39:00,73.2,44.7,28.82,SSE,149,3.6,3.6,36,0.00,,BKN300,0.00,VWS V14.01,2013-05-13 22:39:00,
2013-05-13 17:45:00,73.4,44.8,28.82,SSE,157,0.0,0.0,36,0.00,,BKN300,0.00,VWS V14.01,2013-05-13 22:45:00,
2013-05-13 17:50:00,73.4,44.8,28.82,South,185,0.0,5.4,36,0.00,,BKN300,0.00,VWS V14.01,2013-05-13 22:50:00,
2013-05-13 17:55:00,73.4,44.8,28.82,SSE,160,3.1,6.3,36,0.00,,BKN300,0.00,VWS V14.01,2013-05-13 22:55:00,
2013-05-13 18:00:00,73.0,44.5,28.82,South,190,5.8,5.8,36,0.00,,BKN300,0.00,VWS V14.01,2013-05-13 23:00:00,
2013-05-13 18:05:00,72.9,44.4,28.82,SSW,209,4.0,4.0,36,0.00,,OVC300,0.00,VWS V14.01,2013-05-13 23:05:00,
2013-05-13 18:10:00,72.9,44.4,28.82,SSE,149,2.7,4.9,36,0.00,,OVC300,0.00,VWS V14.01,2013-05-13 23:10:00,
2013-05-13 18:15:00,72.9,44.4,28.82,SSE,167,6.7,6.7,36,0.00,,OVC300,0.00,VWS V14.01,2013-05-13 23:15:00,
2013-05-13 18:20:00,72.9,44.4,28.82,SSE,166,3.6,3.6,36,0.00,,OVC300,0.00,VWS V14.01,2013-05-13 23:20:00,
2013-05-13 18:25:00,72.7,44.2,28.82,SSE,166,3.6,3.6,36,0.00,,OVC300,0.00,VWS V14.01,2013-05-13 23:25:00,
2013-05-13 18:30:00,72.7,44.2,28.79,South,172,6.3,10.5,36,0.00,,OVC300,0.00,VWS V14.01,2013-05-13 23:30:00,
2013-05-13 18:35:00,72.5,44.8,28.79,SSE,159,3.1,4.0,37,0.00,,OVC300,0.00,VWS V14.01,2013-05-13 23:35:00,
2013-05-13 18:40:00,72.5,44.8,28.79,South,170,4.9,4.9,37,0.00,,OVC300,0.00,VWS V14.01,2013-05-13 23:40:00,
2013-05-13 18:45:00,72.3,44.6,28.79,SSE,150,0.0,5.4,37,0.00,,OVC300,0.00,VWS V14.01,2013-05-13 23:45:00,
2013-05-13 18:50:00,72.1,44.5,28.79,South,181,0.0,8.7,37,0.00,,OVC300,0.00,VWS V14.01,2013-05-13 23:50:00,
2013-05-13 18:55:00,72.1,44.5,28.79,South,187,2.7,4.0,37,0.00,,OVC300,0.00,VWS V14.01,2013-05-13 23:55:00,
2013-05-13 19:00:00,72.0,44.3,28.79,South,189,3.6,5.8,37,0.00,,OVC300,0.00,VWS V14.01,2013-05-14 00:00:00,
2013-05-13 19:05:00,72.0,44.3,28.79,SSE,162,2.7,2.7,37,0.00,,OVC300,0.00,VWS V14.01,2013-05-14 00:05:00,
2013-05-13 19:10:00,71.8,44.1,28.79,South,179,2.7,3.1,37,0.00,,OVC300,0.00,VWS V14.01,2013-05-14 00:10:00,
2013-05-13 19:15:00,71.8,44.1,28.79,SSE,147,0.0,0.0,37,0.00,,OVC300,0.00,VWS V14.01,2013-05-14 00:15:00,
2013-05-13 19:21:00,71.6,44.7,28.79,SSE,160,3.1,3.1,38,0.00,,OVC300,0.00,VWS V14.01,2013-05-14 00:21:00,
2013-05-13 19:26:00,71.4,44.5,28.79,South,185,0.0,0.0,38,0.00,,OVC300,0.00,VWS V14.01,2013-05-14 00:26:00,
2013-05-13 19:31:00,71.4,45.2,28.79,South,177,0.0,0.0,39,0.00,,OVC300,0.00,VWS V14.01,2013-05-14 00:31:00,
2013-05-13 19:36:00,71.2,45.0,28.79,South,172,0.0,0.0,39,0.00,,OVC300,0.00,VWS V14.01,2013-05-14 00:36:00,
2013-05-13 19:41:00,70.9,46.0,28.79,SSE,166,0.0,0.0,41,0.00,,OVC300,0.00,VWS V14.01,2013-05-14 00:41:00,
2013-05-13 19:46:00,70.7,45.9,28.79,SSE,157,0.0,0.0,41,0.00,,OVC300,0.00,VWS V14.01,2013-05-14 00:46:00,
2013-05-13 19:51:00,70.5,45.7,28.79,SSE,157,0.0,0.0,41,0.00,,OVC300,0.00,VWS V14.01,2013-05-14 00:51:00,
2013-05-13 19:56:00,70.5,46.3,28.79,SSE,157,0.0,0.0,42,0.00,,OVC300,0.00,VWS V14.01,2013-05-14 00:56:00,
2013-05-13 20:01:00,70.2,46.0,28.79,SSE,148,0.0,0.0,42,0.00,,BKN300,0.00,VWS V14.01,2013-05-14 01:01:00,
2013-05-13 20:06:00,70.0,45.9,28.79,SSE,148,0.0,0.0,42,0.00,,BKN300,0.00,VWS V14.01,2013-05-14 01:06:00,
2013-05-13 20:11:00,69.6,46.2,28.79,SSE,159,0.0,0.0,43,0.00,,BKN300,0.00,VWS V14.01,2013-05-14 01:11:00,
2013-05-13 20:16:00,69.3,46.4,28.79,SSE,160,0.0,0.0,44,0.00,,BKN300,0.00,VWS V14.01,2013-05-14 01:16:00,
2013-05-13 20:21:00,69.1,46.3,28.79,SSE,153,0.0,0.0,44,0.00,,BKN300,0.00,VWS V14.01,2013-05-14 01:21:00,
2013-05-13 20:26:00,68.9,46.1,28.79,SE,145,0.0,0.0,44,0.00,,BKN300,0.00,VWS V14.01,2013-05-14 01:26:00,
2013-05-13 20:31:00,68.7,46.0,28.79,SSE,152,0.0,0.0,44,0.00,,BKN300,0.00,VWS V14.01,2013-05-14 01:31:00,
2013-05-13 20:36:00,68.5,45.8,28.79,SSE,152,0.0,0.0,44,0.00,,BKN300,0.00,VWS V14.01,2013-05-14 01:36:00,
2013-05-13 20:41:00,68.4,46.2,28.79,SSE,152,0.0,0.0,45,0.00,,BKN300,0.00,VWS V14.01,2013-05-14 01:41:00,
2013-05-13 20:46:00,68.2,46.0,28.79,SSE,164,0.0,0.0,45,0.00,,BKN300,0.00,VWS V14.01,2013-05-14 01:46:00,
2013-05-13 20:51:00,68.0,45.9,28.79,SE,142,0.0,0.0,45,0.00,,BKN300,0.00,VWS V14.01,2013-05-14 01:51:00,
2013-05-13 20:56:00,67.8,46.3,28.79,SSE,149,0.0,0.0,46,0.00,,BKN300,0.00,VWS V14.01,2013-05-14 01:56:00,
2013-05-13 21:01:00,67.8,46.3,28.79,SE,144,0.0,0.0,46,0.00,,BKN300,0.00,VWS V14.01,2013-05-14 02:01:00,
2013-05-13 21:06:00,67.6,46.1,28.79,SE,136,0.0,0.0,46,0.00,,BKN300,0.00,VWS V14.01,2013-05-14 02:06:00,
2013-05-13 21:11:00,67.6,46.1,28.79,SE,141,0.0,0.0,46,0.00,,BKN300,0.00,VWS V14.01,2013-05-14 02:11:00,
2013-05-13 21:16:00,67.5,46.0,28.79,South,177,0.0,0.0,46,0.00,,BKN300,0.00,VWS V14.01,2013-05-14 02:16:00,
2013-05-13 21:22:00,67.5,46.0,28.79,SSE,151,0.0,0.0,46,0.00,,BKN300,0.00,VWS V14.01,2013-05-14 02:22:00,
2013-05-13 21:27:00,67.3,46.4,28.79,SE,143,0.0,0.0,47,0.00,,BKN300,0.00,VWS V14.01,2013-05-14 02:27:00,
2013-05-13 21:32:00,67.3,46.4,28.79,SSE,163,0.0,0.0,47,0.00,,BKN300,0.00,VWS V14.01,2013-05-14 02:32:00,
2013-05-13 21:37:00,67.1,46.2,28.79,SSE,167,0.0,0.0,47,0.00,,BKN300,0.00,VWS V14.01,2013-05-14 02:37:00,
2013-05-13 21:42:00,67.1,46.2,28.79,SSE,167,0.0,0.0,47,0.00,,BKN300,0.00,VWS V14.01,2013-05-14 02:42:00,
2013-05-13 21:47:00,66.9,46.0,28.79,SSE,159,0.0,0.0,47,0.00,,BKN300,0.00,VWS V14.01,2013-05-14 02:47:00,
2013-05-13 21:52:00,66.9,46.6,28.79,South,179,0.0,0.0,48,0.00,,BKN300,0.00,VWS V14.01,2013-05-14 02:52:00,
2013-05-13 21:57:00,66.9,46.6,28.79,SSE,164,0.0,0.0,48,0.00,,BKN300,0.00,VWS V14.01,2013-05-14 02:57:00,
2013-05-13 22:02:00,66.9,46.6,28.79,SE,137,0.0,0.0,48,0.00,,BKN300,0.00,VWS V14.01,2013-05-14 03:02:00,
2013-05-13 22:07:00,66.7,46.5,28.79,SSE,155,0.0,0.0,48,0.00,,BKN300,0.00,VWS V14.01,2013-05-14 03:07:00,
2013-05-13 22:12:00,66.7,46.5,28.79,SSE,152,0.0,0.0,48,0.00,,BKN300,0.00,VWS V14.01,2013-05-14 03:12:00,
2013-05-13 22:17:00,66.6,46.8,28.79,SE,127,0.0,0.0,49,0.00,,BKN300,0.00,VWS V14.01,2013-05-14 03:17:00,
2013-05-13 22:22:00,66.6,46.8,28.79,South,171,0.0,0.0,49,0.00,,BKN300,0.00,VWS V14.01,2013-05-14 03:22:00,
2013-05-13 22:27:00,66.4,46.7,28.79,South,178,0.0,0.0,49,0.00,,BKN300,0.00,VWS V14.01,2013-05-14 03:27:00,
2013-05-13 22:32:00,66.4,46.7,28.79,SSE,151,0.0,0.0,49,0.00,,BKN300,0.00,VWS V14.01,2013-05-14 03:32:00,
2013-05-13 22:37:00,66.2,47.0,28.79,SSE,152,0.0,0.0,50,0.00,,BKN300,0.00,VWS V14.01,2013-05-14 03:37:00,
2013-05-13 22:42:00,66.0,47.4,28.79,South,185,0.0,0.0,51,0.00,,BKN300,0.00,VWS V14.01,2013-05-14 03:42:00,
2013-05-13 22:47:00,66.0,47.4,28.76,SSE,165,0.0,0.0,51,0.00,,BKN300,0.00,VWS V14.01,2013-05-14 03:47:00,
2013-05-13 22:52:00,66.0,47.4,28.76,SSE,168,0.0,0.0,51,0.00,,BKN300,0.00,VWS V14.01,2013-05-14 03:52:00,
2013-05-13 22:57:00,65.8,47.7,28.76,South,179,0.0,0.0,52,0.00,,BKN300,0.00,VWS V14.01,2013-05-14 03:57:00,
2013-05-13 23:01:00,65.8,47.7,28.76,South,169,0.0,0.0,52,0.00,,BKN300,0.00,VWS V14.01,2013-05-14 04:01:00,
2013-05-13 23:02:00,65.7,47.6,28.76,SSE,155,0.0,0.0,52,0.00,,BKN300,0.00,VWS V14.01,2013-05-14 04:02:00,
2013-05-13 23:07:00,65.7,47.6,28.76,South,177,0.0,0.0,52,0.00,,BKN300,0.00,VWS V14.01,2013-05-14 04:07:00,
2013-05-13 23:12:00,65.7,48.1,28.76,South,170,0.0,0.0,53,0.00,,BKN300,0.00,VWS V14.01,2013-05-14 04:12:00,
2013-05-13 23:17:00,65.5,47.9,28.76,South,187,0.0,0.0,53,0.00,,BKN300,0.00,VWS V14.01,2013-05-14 04:17:00,
2013-05-13 23:22:00,65.5,48.4,28.76,South,177,0.0,0.0,54,0.00,,BKN300,0.00,VWS V14.01,2013-05-14 04:22:00,
2013-05-13 23:27:00,65.3,48.2,28.76,SSE,155,0.0,0.0,54,0.00,,BKN300,0.00,VWS V14.01,2013-05-14 04:27:00,
2013-05-13 23:32:00,65.3,48.7,28.76,South,185,0.0,0.0,55,0.00,,BKN300,0.00,VWS V14.01,2013-05-14 04:32:00,
2013-05-13 23:37:00,65.1,48.6,28.76,South,184,0.0,0.0,55,0.00,,BKN300,0.00,VWS V14.01,2013-05-14 04:37:00,
2013-05-13 23:42:00,65.1,49.0,28.76,SSE,160,0.0,0.0,56,0.00,,BKN300,0.00,VWS V14.01,2013-05-14 04:42:00,
2013-05-13 23:47:00,65.1,49.0,28.76,South,169,0.0,0.0,56,0.00,,BKN300,0.00,VWS V14.01,2013-05-14 04:47:00,
2013-05-13 23:52:00,65.1,49.0,28.76,South,180,0.0,0.0,56,0.00,,BKN300,0.00,VWS V14.01,2013-05-14 04:52:00,
2013-05-13 23:57:00,64.9,49.4,28.76,SSE,166,0.0,0.0,57,0.00,,BKN300,0.00,VWS V14.01,2013-05-14 04:57:00,